Hourly Data Report for May 03, 2012

All times are specified in Local Standard Time (LST). Add 1 hour to adjust for Daylight Saving Time where and when it is observed.

YARMOUTH A
NOVA SCOTIA

43°49'37.000" N
66°05'17.000" W
42.90 m
8206495
71603
YQI

Download Data

Hourly Data (May 2012)
Hourly Data Report for May 3, 2012
Temp Definition
°C
Dew Point Temp Definition
°C
Rel Hum Definition
%
Wind Dir Definition
10's deg

Wind Spd Definition
km/h
Visibility Definition
km
Stn Press Definition
kPa
Hmdx Definition


Wind Chill Definition


Weather Definition


TIME
00:00 3.2 2.5 95 34 10 10.0 101.81     LegendNANA
01:00 3.3 2.7 96 33 14 10.0 101.77     LegendNANA
02:00 3.3 2.6 95 36 12 10.0 101.73     Mostly Cloudy
03:00 3.7 3.4 98 35 12 10.0 101.71     LegendNANA
04:00 3.4 3.1 98 35 10 10.0 101.67     LegendNANA
05:00 2.7 2.4 98 36 10 10.0 101.68     Cloudy
06:00 4.0 3.6 97 35 10 10.0 101.72     LegendNANA
07:00 6.2 5.0 92 3 8 10.0 101.71     LegendNANA
08:00 8.3 5.6 83 2 8 10.0 101.72     Cloudy
09:00 11.5 5.0 64 29 8 10.0 101.71     LegendNANA
10:00 11.5 6.5 71 30 16 10.0 101.68     LegendNANA
11:00 12.9 6.5 65 29 16 10.0 101.61     Mostly Cloudy
12:00 11.8 6.8 71 32 24 10.0 101.65     LegendNANA
13:00 11.6 6.2 69 30 28 10.0 101.62     LegendNANA
14:00 12.2 5.4 63 31 28 10.0 101.57     Cloudy
15:00 11.3 5.0 65 32 28 10.0 101.52     LegendNANA
16:00 10.8 4.7 66 31 30 10.0 101.46     LegendNANA
17:00 10.3 4.9 69 31 24 10.0 101.42     Cloudy
18:00 9.0 5.0 76 32 21 10.0 101.39     LegendNANA
19:00 7.3 5.0 85 31 24 10.0 101.37     LegendNANA
20:00 6.5 5.1 91 32 21 10.0 101.39     Cloudy
21:00 6.2 5.2 93 32 18 10.0 101.41     LegendNANA
22:00 6.2 5.2 93 33 19 10.0 101.39     LegendNANA
23:00 6.2 5.5 95 33 18 10.0 101.37     Cloudy

Notes on Data Quality.

Legend

  • E = Estimated
  • M = Missing
  • NA = Not Available
Date modified: